This is the latest recevied weather packets stored in our database for station/object SV9TNF-1. If no packets are shown the sender has not sent any weather packets the latest 10 day(s).
| Time | Temp. | Humidity | Pressure | Rain* | Wind** | Luminosity | Snow |
|---|---|---|---|---|---|---|---|
| 1777426752 | 14.44° C | 74% | 1004.7 hPa | 0 mm | 4.02 m/s, 293° | - | - |
| 1777426452 | 15° C | 74% | 1004.7 hPa | 0 mm | 4.02 m/s, 314° | - | - |
| 1777426152 | 15° C | 73% | 1004.7 hPa | 0 mm | 2.68 m/s, 74° | - | - |
| 1777425852 | 14.44° C | 74% | 1004.7 hPa | 0 mm | 4.92 m/s, 338° | - | - |
| 1777425552 | 14.44° C | 78% | 1004.7 hPa | 0 mm | 2.24 m/s, 183° | - | - |
| 1777425251 | 14.44° C | 80% | 1004.7 hPa | 0 mm | 5.81 m/s, 329° | - | - |
| 1777424961 | 14.44° C | 72% | 1004.1 hPa | 0 mm | 8.05 m/s, 2° | - | - |
| 1777424651 | 13.89° C | 75% | 1004.1 hPa | 0 mm | 6.71 m/s, 327° | - | - |
| 1777424351 | 13.33° C | 77% | 1004.1 hPa | 0 mm | 4.92 m/s, 327° | - | - |
| 1777424052 | 13.89° C | 79% | 1004.1 hPa | 0 mm | 3.58 m/s, 301° | - | - |
| 1777423751 | 13.89° C | 81% | 1004.1 hPa | 0 mm | 1.79 m/s, 168° | - | - |
| 1777423451 | 14.44° C | 79% | 1004.1 hPa | 0 mm | 8.05 m/s, 336° | - | - |
| 1777423151 | 14.44° C | 80% | 1004.1 hPa | 0 mm | 7.15 m/s, 335° | - | - |
| 1777422851 | 14.44° C | 77% | 1004.7 hPa | 0 mm | 6.26 m/s, 332° | - | - |
| 1777422551 | 14.44° C | 75% | 1004.7 hPa | 0 mm | 6.26 m/s, 327° | - | - |
| 1777422250 | 14.44° C | 75% | 1004.7 hPa | 0 mm | 7.15 m/s, 348° | - | - |
| 1777421950 | 14.44° C | 76% | 1004.7 hPa | 0 mm | 6.26 m/s, 322° | - | - |
| 1777421651 | 14.44° C | 76% | 1004.7 hPa | 0 mm | 4.92 m/s, 296° | - | - |
| 1777421350 | 14.44° C | 76% | 1004.7 hPa | 0 mm | 5.81 m/s, 298° | - | - |
| 1777421050 | 14.44° C | 77% | 1004.7 hPa | 0 mm | 4.02 m/s, 341° | - | - |
| 1777420750 | 14.44° C | 77% | 1004.7 hPa | 0 mm | 3.13 m/s, 333° | - | - |
| 1777420450 | 14.44° C | 76% | 1004.7 hPa | 0 mm | 4.92 m/s, 345° | - | - |
| 1777420150 | 14.44° C | 74% | 1004.7 hPa | 0 mm | 5.81 m/s, 318° | - | - |
| 1777419850 | 14.44° C | 73% | 1004.7 hPa | 0 mm | 4.92 m/s, 331° | - | - |
| 1777419550 | 14.44° C | 73% | 1004.7 hPa | 0 mm | 4.92 m/s, 338° | - | - |
* Rain latest hour (hover to see other rain measurements)
** Current wind speed in m/s (hover to see current wind gust speed)